Weather History for Mount Pleasant, SC

Change the Weather History Date:

Sunday, June 16, 2013

  Actual Average (KCHS) Record (KCHS)
Temperature  
Mean Temperature 76 °F 79 °F  
Max Temperature 87 °F 89 °F 100 °F (1981)
Min Temperature 64 °F 70 °F 55 °F (1955)
Degree Days  
Heating Degree Days 0 0  
Month to date heating degree days 0  
Since 1 June heating degree days 0  
Since 1 July heating degree days 1975  
Cooling Degree Days 10 14  
Month to date cooling degree days 206  
Year to date cooling degree days 568  
Since 1 June cooling degree days 206  
Growing Degree Days 26 (Base 50)    
Moisture  
Dew Point 65 °F    
Average Humidity 73    
Maximum Humidity 100    
Minimum Humidity 48    
Precipitation  
Precipitation 0.00 in 0.20 in 4.28 in (1939)
Month to date precipitation 2.74  
Year to date precipitation 19.05  
Sea Level Pressure  
Sea Level Pressure 30.13 in    
Wind  
Wind Speed 2 mph (South)    
Max Wind Speed 13 mph    
Max Gust Speed 17 mph    
Visibility 10 miles    
Events Rain    
T = Trace of Precipitation, MM = Missing Value Source: NWS Daily Summary

Daily Weather History Graph

Daily Weather History Graph

Search for Another Location

Airport:

Trip Planner

Search our weather history database for the weather conditions in past years. The results will help you decide how hot, cold, wet, or windy it might be!

Date:

Astronomy

Jun. 16, 2013 Rise Set
Actual Time 6:10 AM EDT 8:29 PM EDT
Civil Twilight 5:41 AM EDT 8:58 PM EDT
Nautical Twilight 5:06 AM EDT 9:33 PM EDT
Astronomical Twilight 4:28 AM EDT 10:11 PM EDT
Moon 1:22 PM EDT (6/16) 12:54 AM EDT (6/16)
Length of Visible Light 15h 16m
Length of Day
14h 18m
Waxing Crescent, 49% of the Moon is Illuminated
Jun 16
Waxing Crescent
Jun 16
First Quarter
Jun 23
Full
Jun 30
Last Quarter
Jul 8
New

Hourly Weather History & Observations

Time (EDT) Temp. Heat Index Dew Point Humidity Pressure Visibility Wind Dir Wind Speed Gust Speed Precip Events Conditions
12:15 AM 69.8 °F - 62.6 °F 78% 30.14 in 10.0 mi Calm Calm - N/A Rain Light Rain
12:35 AM 69.8 °F - 64.4 °F 83% 30.14 in 10.0 mi Calm Calm - N/A Rain Light Rain
12:55 AM 66.2 °F - 64.4 °F 94% 30.14 in 10.0 mi Calm Calm - N/A Rain Light Rain
1:15 AM 69.8 °F - 64.4 °F 83% 30.14 in 10.0 mi Calm Calm - N/A Rain Light Rain
1:35 AM 68.0 °F - 64.4 °F 88% 30.14 in 10.0 mi Calm Calm - N/A   Light Drizzle
1:55 AM 66.2 °F - 62.6 °F 88% 30.14 in 9.0 mi Calm Calm - N/A   Clear
2:15 AM 66.2 °F - 64.4 °F 94% 30.13 in 10.0 mi Calm Calm - N/A Rain Light Rain
2:35 AM 66.2 °F - 62.6 °F 88% 30.13 in 10.0 mi Calm Calm - N/A Rain Light Rain
2:55 AM 66.2 °F - 62.6 °F 88% 30.13 in 10.0 mi Calm Calm - N/A Rain Light Rain
3:15 AM 64.4 °F - 62.6 °F 94% 30.13 in 10.0 mi Calm Calm - N/A Rain Light Rain
3:35 AM 64.4 °F - 62.6 °F 94% 30.13 in 10.0 mi Calm Calm - N/A Rain Light Rain
3:55 AM 64.4 °F - 62.6 °F 94% 30.13 in 10.0 mi Calm Calm - N/A Rain Light Rain
4:15 AM 64.4 °F - 62.6 °F 94% 30.13 in 10.0 mi Calm Calm - N/A Rain Light Rain
4:35 AM 64.4 °F - 64.4 °F 100% 30.13 in 10.0 mi Calm Calm - N/A Rain Light Rain
4:55 AM 64.4 °F - 64.4 °F 100% 30.13 in 10.0 mi Calm Calm - N/A Rain Light Rain
5:15 AM 64.4 °F - 62.6 °F 94% 30.13 in 10.0 mi Calm Calm - N/A Rain Light Rain
5:35 AM 64.4 °F - 64.4 °F 100% 30.13 in 10.0 mi Calm Calm - N/A Rain Light Rain
5:55 AM 64.4 °F - 62.6 °F 94% 30.14 in 10.0 mi Calm Calm - N/A Rain Light Rain
6:15 AM 64.4 °F - 62.6 °F 94% 30.14 in 10.0 mi Calm Calm - N/A Rain Light Rain
6:35 AM 64.4 °F - 64.4 °F 100% 30.15 in 10.0 mi Calm Calm - N/A Rain Light Rain
6:55 AM 64.4 °F - 64.4 °F 100% 30.15 in 10.0 mi Calm Calm - N/A Rain Light Rain
7:15 AM 66.2 °F - 66.2 °F 100% 30.16 in 9.0 mi Calm Calm - N/A Rain Light Rain
7:35 AM 66.2 °F - 66.2 °F 100% 30.16 in 9.0 mi Calm Calm - N/A Rain Light Rain
7:55 AM 71.6 °F - 69.8 °F 94% 30.16 in 10.0 mi Calm Calm - N/A Rain Light Rain
8:15 AM 71.6 °F - 69.8 °F 94% 30.17 in 10.0 mi Calm Calm - N/A Rain Light Rain
8:35 AM 73.4 °F - 69.8 °F 88% 30.17 in 10.0 mi Calm Calm - N/A   Light Drizzle
8:55 AM 78.8 °F - 66.2 °F 65% 30.18 in 10.0 mi Calm Calm - N/A   Light Drizzle
9:15 AM 78.8 °F - 64.4 °F 61% 30.18 in 10.0 mi WSW 4.6 mph - N/A   Light Drizzle
9:55 AM 80.6 °F 82.3 °F 64.4 °F 58% 30.18 in 10.0 mi SSW 5.8 mph - N/A   Light Drizzle
10:15 AM 80.6 °F 81.8 °F 62.6 °F 54% 30.18 in 10.0 mi Calm Calm - N/A   Light Drizzle
10:35 AM 78.8 °F - 64.4 °F 61% 30.18 in 10.0 mi Calm Calm - N/A   Light Drizzle
10:55 AM 82.4 °F 83.9 °F 64.4 °F 54% 30.17 in 10.0 mi SSE 4.6 mph - N/A   Light Drizzle
11:35 AM 82.4 °F 83.9 °F 64.4 °F 54% 30.17 in 10.0 mi SSW 4.6 mph - N/A   Light Drizzle
11:55 AM 82.4 °F 83.4 °F 62.6 °F 51% 30.16 in 9.0 mi Calm Calm - N/A   Light Drizzle
12:15 PM 82.4 °F 83.9 °F 64.4 °F 54% 30.16 in 10.0 mi South 3.5 mph - N/A   Light Drizzle
12:35 PM 82.4 °F 83.9 °F 64.4 °F 54% 30.15 in 10.0 mi South 8.1 mph - N/A   Light Drizzle
12:55 PM 84.2 °F 85.6 °F 64.4 °F 51% 30.15 in 10.0 mi South 5.8 mph - N/A   Light Drizzle
1:15 PM 84.2 °F 85.6 °F 64.4 °F 51% 30.14 in 10.0 mi South 9.2 mph - N/A   Light Drizzle
1:35 PM 82.4 °F 83.9 °F 64.4 °F 54% 30.14 in 10.0 mi South 8.1 mph - N/A   Light Drizzle
1:55 PM 84.2 °F 85.0 °F 62.6 °F 48% 30.13 in 10.0 mi South 10.4 mph - N/A   Light Drizzle
2:15 PM 84.2 °F 85.6 °F 64.4 °F 51% 30.13 in 10.0 mi South 10.4 mph - N/A   Light Drizzle
2:35 PM 84.2 °F 85.0 °F 62.6 °F 48% 30.12 in 10.0 mi SE 5.8 mph - N/A   Light Drizzle
2:55 PM 84.2 °F 85.6 °F 64.4 °F 51% 30.12 in 10.0 mi SSE 9.2 mph - N/A   Light Drizzle
3:15 PM 84.2 °F 85.6 °F 64.4 °F 51% 30.12 in 10.0 mi SSE 8.1 mph - N/A   Light Drizzle
3:35 PM 84.2 °F 85.6 °F 64.4 °F 51% 30.11 in 10.0 mi SSE 11.5 mph 17.3 mph N/A   Light Drizzle
3:55 PM 84.2 °F 85.6 °F 64.4 °F 51% 30.11 in 10.0 mi SE 9.2 mph - N/A   Light Drizzle
4:15 PM 84.2 °F 85.0 °F 62.6 °F 48% 30.10 in 10.0 mi SSE 9.2 mph - N/A   Light Drizzle
4:35 PM 87.8 °F 90.4 °F 66.2 °F 49% 30.10 in 10.0 mi South 8.1 mph - N/A   Light Drizzle
4:55 PM 84.2 °F 85.6 °F 64.4 °F 51% 30.10 in 10.0 mi South 11.5 mph - N/A   Light Drizzle
5:15 PM 84.2 °F 85.6 °F 64.4 °F 51% 30.10 in 10.0 mi South 11.5 mph - N/A   Light Drizzle
5:35 PM 84.2 °F 86.6 °F 66.2 °F 55% 30.10 in 10.0 mi SSE 12.7 mph 16.1 mph N/A   Light Drizzle
5:55 PM 82.4 °F 84.6 °F 66.2 °F 58% 30.09 in 10.0 mi South 11.5 mph - N/A   Light Drizzle
6:15 PM 82.4 °F 83.4 °F 62.6 °F 51% 30.09 in 10.0 mi South 9.2 mph - N/A   Light Drizzle
6:35 PM 82.4 °F 83.9 °F 64.4 °F 54% 30.09 in 10.0 mi South 9.2 mph 16.1 mph N/A   Light Drizzle
6:55 PM 82.4 °F 83.9 °F 64.4 °F 54% 30.09 in 10.0 mi South 9.2 mph - N/A   Light Drizzle
7:15 PM 82.4 °F 83.9 °F 64.4 °F 54% 30.10 in 10.0 mi South 10.4 mph - N/A   Light Drizzle
7:35 PM 82.4 °F 83.9 °F 64.4 °F 54% 30.10 in 10.0 mi South 8.1 mph - N/A   Light Drizzle
7:55 PM 80.6 °F 82.3 °F 64.4 °F 58% 30.09 in 10.0 mi South 8.1 mph - N/A   Light Drizzle
8:15 PM 78.8 °F - 64.4 °F 61% 30.10 in 10.0 mi South 6.9 mph - N/A   Light Drizzle
8:35 PM 77.0 °F - 66.2 °F 69% 30.09 in 10.0 mi South 5.8 mph - N/A   Light Drizzle
8:55 PM 75.2 °F - 66.2 °F 73% 30.09 in 10.0 mi Calm Calm - N/A   Light Drizzle
9:15 PM 73.4 °F - 66.2 °F 78% 30.08 in 10.0 mi South 4.6 mph - N/A   Light Drizzle
9:35 PM 73.4 °F - 66.2 °F 78% 30.09 in 10.0 mi Calm Calm - N/A   Light Drizzle
9:55 PM 73.4 °F - 66.2 °F 78% 30.09 in 10.0 mi Calm Calm - N/A   Light Drizzle
10:15 PM 73.4 °F - 66.2 °F 78% 30.09 in 10.0 mi South 4.6 mph - N/A   Light Drizzle
10:35 PM 73.4 °F - 68.0 °F 83% 30.10 in 10.0 mi South 3.5 mph - N/A Rain Light Rain
10:55 PM 73.4 °F - 68.0 °F 83% 30.10 in 10.0 mi Calm Calm - N/A   Light Drizzle
11:15 PM 71.6 °F - 68.0 °F 88% 30.11 in 10.0 mi Calm Calm - N/A Rain Light Rain
11:35 PM 71.6 °F - 69.8 °F 94% 30.11 in 10.0 mi Calm Calm - N/A Rain Light Rain
11:55 PM 71.6 °F - 69.8 °F 94% 30.11 in 10.0 mi Calm Calm - N/A Rain Light Rain